Satellite-Ground Cal/Val Region Overpasses Predictions

Prediction of Satellite NPP Overpassing Cal/Val Region: PacNW

Region Location: (Latitude: 10.00, Longitude: 139.50) to (Latitude: 22.70, Longitude: 165.60).

Table of predicted overpasses for the next 14.0 days since TLE Epoch: 6/23/2017
Interval Starting Time Starting Location Ending Time Ending Location
1 06/24/2017 02:58:06 ( 10.01, 155.21) 06/24/2017 03:01:42 ( 22.69, 152.19)
2 06/24/2017 15:29:58 ( 22.69, 152.45) 06/24/2017 15:33:34 ( 10.01, 149.43)
3 06/25/2017 02:39:04 ( 10.04, 159.96) 06/25/2017 02:42:39 ( 22.66, 156.96)
4 06/25/2017 15:10:57 ( 22.66, 157.20) 06/25/2017 15:14:32 ( 10.03, 154.20)
5 06/26/2017 02:20:02 ( 10.02, 164.73) 06/26/2017 02:23:38 ( 22.70, 161.71)
6 06/26/2017 14:51:54 ( 22.68, 161.97) 06/26/2017 14:55:30 ( 10.00, 158.95)
7 06/27/2017 03:42:30 ( 10.06, 144.10) 06/27/2017 03:46:05 ( 22.68, 141.10)
8 06/27/2017 14:34:11 ( 18.07, 165.60) 06/27/2017 14:36:28 ( 10.03, 163.72)
9 06/27/2017 16:14:23 ( 22.64, 141.34) 06/27/2017 16:16:32 ( 15.07, 139.51)
10 06/28/2017 03:23:28 ( 10.03, 148.87) 06/28/2017 03:27:03 ( 22.65, 145.87)
11 06/28/2017 15:55:20 ( 22.67, 146.11) 06/28/2017 15:58:55 ( 10.05, 143.10)
12 06/29/2017 03:04:25 ( 10.00, 153.63) 06/29/2017 03:08:01 ( 22.69, 150.62)
13 06/29/2017 15:36:18 ( 22.69, 150.87) 06/29/2017 15:39:54 ( 10.01, 147.86)
14 06/30/2017 02:45:24 ( 10.04, 158.39) 06/30/2017 02:48:59 ( 22.66, 155.38)
15 06/30/2017 15:17:17 ( 22.66, 155.62) 06/30/2017 15:20:52 ( 10.04, 152.62)
16 07/01/2017 02:26:21 ( 10.01, 163.15) 07/01/2017 02:29:57 ( 22.69, 160.13)
17 07/01/2017 14:58:14 ( 22.68, 160.39) 07/01/2017 15:01:50 ( 10.00, 157.37)
18 07/02/2017 02:10:07 ( 19.86, 165.59) 07/02/2017 02:10:55 ( 22.67, 164.90)
19 07/02/2017 03:48:50 ( 10.05, 142.53) 07/02/2017 03:52:25 ( 22.68, 139.52)
20 07/02/2017 14:39:13 ( 22.65, 165.14) 07/02/2017 14:42:48 ( 10.03, 162.14)
21 07/02/2017 16:20:43 ( 22.64, 139.76) 07/02/2017 16:21:01 ( 21.59, 139.50)
22 07/03/2017 03:29:47 ( 10.03, 147.29) 07/03/2017 03:33:22 ( 22.65, 144.29)
23 07/03/2017 16:01:40 ( 22.67, 144.53) 07/03/2017 16:05:15 ( 10.05, 141.53)
24 07/04/2017 03:10:45 ( 10.01, 152.06) 07/04/2017 03:14:21 ( 22.69, 149.04)
25 07/04/2017 15:42:38 ( 22.69, 149.30) 07/04/2017 15:46:14 ( 10.01, 146.28)
26 07/05/2017 02:51:43 ( 10.04, 156.81) 07/05/2017 02:55:18 ( 22.66, 153.80)
27 07/05/2017 15:23:36 ( 22.66, 154.05) 07/05/2017 15:27:11 ( 10.04, 151.04)
28 07/06/2017 02:32:41 ( 10.02, 161.57) 07/06/2017 02:36:17 ( 22.70, 158.55)
29 07/06/2017 15:04:34 ( 22.68, 158.81) 07/06/2017 15:08:10 ( 10.00, 155.79)
30 07/07/2017 02:14:33 ( 13.23, 165.59) 07/07/2017 02:17:14 ( 22.68, 163.32)
31 07/07/2017 03:55:09 ( 10.06, 140.95) 07/07/2017 03:56:54 ( 16.23, 139.51)


NCC Satellite Cal/Val Overpasses Prediction Service
